www.pogodaiklimat.ru

Погода и климат >> Архив погоды >> Индия >> Андхра-Прадеш >> Карнул


ПОГОДА в Карнуле

  • Прогноз погоды в Карнуле
  • Монитор погоды в Карнуле

АРХИВ ПОГОДЫ в Карнуле

Время (UTC), дата Ветер
(напр.,м/с)
 
Видим.   Явления Облачность Т
(С)
Тd
(С)
f
(%)
Тe
(С)
Тes
(С)
Комфортность P
(гПа)
Po
(гПа)
Тmin
(С)
Tmax
(С)
R
(мм)
R24
(мм)
S
(см)
18 14.05 нст 1 4000 м 6/1 600 м
[Sc Ac trans Cs]
+34.6 +17.5 36 +38 +38 очень
душно
1004.0 973.5
21 14.05 нст 1 4000 м 6/1 600 м
[Sc Ac trans Cs]
+33.0 +20.0 46 +39 +39 очень
душно
1004.0 973.3
00 15.05 штиль 0 4000 м в посл. час морось 9/3 600 м
[Cu Sc Ac As Cs]
+32.2 +22.9 58 +42 +42 опасность
перегрева
1004.7 974.0 0.0
03 15.05 нст 1 10 км 9/4 600 м
[Cu Sc Ac trans Cs]
+34.0 +14.6 31 +35 +38 очень
жарко
1007.0 976.3 +31.5 +42.1 0.0
06 15.05 нст 1 10 км 8/1 600 м
[Cu Sc Ac trans Cs]
+38.0 +12.3 22 +38 +51 опасность
солнечного
удара
1005.9 975.6
09 15.05 нст 1 10 км 4/1 600 м
[Cu Sc Ac trans Ci fib]
+42.4 +9.9 15 +41 +55 опасность
перегрева
1002.2 972.5
12 15.05 В 4 10 км 6/3 600 м
[Cu Sc Ac trans Ci sp]
+38.8 +14.1 23 +39 +40 очень
жарко
1002.9 972.8 +43.1
15 15.05 В 2 4000 м 6/1 600 м
[Sc Ac trans Cs]
+35.4 +15.8 31 +37 +37 очень
душно
1004.1 973.7
18 15.05 нст 1 4000 м 6/1 600 м
[Sc Ac trans Cs]
+33.6 +15.7 34 +36 +36 очень
душно
1005.6 974.9
21 15.05 Ю 2 4000 м 9/3 600 м
[Cu Sc Ac As Cs]
+32.8 +16.7 38 +36 +36 очень
душно
1005.5 974.8
00 16.05 нст 1 4000 м 8/3 600 м
[Cu Sc Ac As Cs]
+31.8 +18.5 45 +37 +37 очень
душно
1006.0 975.1
03 16.05 СЗ 3 10 км 5/0
[Ac trans Ci sp]
+34.4 +20.3 44 +41 +46 опасность
перегрева
1008.3 977.6 +31.0 +43.1
06 16.05 СЗ 2 10 км 3/0
[Ac trans Ci fib]
+38.4 +16.3 27 +40 +61 опасность
солнечного
удара
1006.9 976.7
09 16.05 З 3 10 км 5/3 600 м
[Cu hum Ac trans]
+42.4 +12.7 17 +42 +49 опасность
перегрева
1003.5 973.8
12 16.05 нст 1 10 км 5/3 600 м
[Sc diur, vesp Ac trans Ci sp]
+42.4 +15.3 21 +44 +45 опасность
перегрева
1002.5 972.8 +43.3
15 16.05 В 3 4000 м 3/0
[Cs]
+37.4 +16.5 29 +40 +40 очень
душно
1004.6 974.4
18 16.05 В 2 4000 м ясно +34.6 +18.3 38 +39 +39 очень
душно
1005.9 975.3
21 16.05 штиль 0 4000 м 6/4 600 м
[Sc Ac trans]
+33.4 +21.6 50 +41 +41 опасность
перегрева
1005.2 974.5
00 17.05 штиль 0 4000 м 4/3 600 м
[Sc Ac trans]
+32.0 +22.0 56 +41 +41 опасность
перегрева
1005.7 974.9
03 17.05 Ю 2 10 км 3/1 600 м
[Cu Sc Ac trans]
+35.0 +21.1 44 +42 +48 опасность
перегрева
1007.3 976.7 +30.8 +43.3
06 17.05 нст 1 10 км 1/1 600 м
[Cu Sc]
+39.6 +11.9 19 +39 +61 опасность
солнечного
удара
1006.4 976.3
09 17.05 В 4 4000 м гроза без осадков 9/4 300 м
[Cb calv Ac As Cs]
+36.6 +17.9 33 +40 +44 очень
душно
1004.7 974.4
12 17.05 В 2 10 км {гроза} 8/1 600 м
[Cu Sc Ac trans Cs]
+39.0 +14.5 24 +40 +41 очень
душно
1002.4 972.3 +42.9
15 17.05 В 1 4000 м 5/1 600 м
[Sc Ac trans Ci sp]
+35.0 +18.1 37 +39 +39 очень
душно
1004.7 974.2
18 17.05 штиль 0 4000 м 4/0
[Ac trans Ci sp]
+32.6 +18.4 43 +37 +37 очень
душно
1006.2 975.4
21 17.05 штиль 0 4000 м 3/0
[Ci sp]
+31.0 +18.3 47 +36 +36 очень
душно
1004.9 974.0
00 18.05 штиль 0 4000 м ясно +30.6 +17.0 44 +34 +34 очень
душно
1005.5 974.6
03 18.05 штиль 0 10 км 3/0
[Ci sp]
+34.6 +17.9 37 +38 +48 очень
душно
1006.8 976.2 +29.6 +42.9
06 18.05 ЮЗ 2 10 км 4/0
[Ac trans Ci sp]
+39.0 +16.7 27 +41 +61 опасность
перегрева
1006.0 975.8
09 18.05 нст 1 10 км 4/3 600 м
[Cu Sc Ci fib]
+42.2 +15.4 21 +43 +57 опасность
перегрева
1002.4 972.7
12 18.05 штиль 0 10 км 3/3 600 м
[Cu Sc]
+42.4 +15.3 21 +44 +45 опасность
перегрева
1001.2 971.5 +44.0
15 18.05 штиль 0 4000 м 1/1 600 м
[Cu Sc]
+37.6 +17.7 31 +41 +41 опасность
перегрева
1003.2 973.0
18 18.05 В 2 4000 м ясно +35.8 +18.4 36 +40 +40 очень
душно
1004.6 974.2
21 18.05 штиль 0 4000 м 4/3 600 м
[Sc Ac trans]
+34.6 +21.0 45 +42 +42 опасность
перегрева
1003.9 973.4
00 19.05 нст 1 4000 м 5/4 600 м
[Sc Ac trans]
+33.0 +20.8 49 +40 +40 очень
душно
1004.5 973.8
03 19.05 штиль 0 10 км 1/0
[Ci fib]
+35.0 +20.7 43 +42 +52 опасность
перегрева
1005.8 975.2 +32.2 +44.0
06 19.05 З 2 10 км ясно +40.4 +15.3 23 +42 +64 опасность
перегрева
1004.9 975.0
09 19.05 СЗ 2 10 км 4/3 600 м
[Cu Sc Ac trans]
+44.0 +15.1 19 +45 +56 опасность
перегрева
1001.8 972.2
12 19.05 штиль 0 4000 м 6/4 600 м
[Cu med, cong Ac trans]
+40.8 +16.4 24 +43 +44 опасность
перегрева
1001.0 971.1 +44.1
15 19.05 нст 1 4000 м зарница 9/4 600 м
[Cb calv Ac As Cs]
+39.0 +15.4 25 +40 +40 очень
душно
1004.0 973.9
18 19.05 В 2 4000 м в посл. час гроза {морось} 9/4 600 м
[Cu Sc Ac As Cs]
+33.0 +20.0 46 +39 +39 очень
душно
1006.5 975.7 0.0
21 19.05 В 2 4000 м зарница {гроза} 9/4 600 м
[Cb calv Ac As Cs]
+32.8 +20.5 48 +39 +39 очень
душно
1005.2 974.5 0.0
00 20.05 штиль 0 4000 м {гроза} 10/4 600 м
[Cu Sc Ac As Cs]
+32.2 +20.5 50 +39 +39 очень
душно
1005.5 974.8 0.0
03 20.05 нст 1 10 км 5/0
[Ac trans Cs]
+35.0 +18.1 37 +39 +46 очень
душно
1007.0 976.4 +31.2 +44.1 0.0
06 20.05 нст 1 10 км 1/0
[Ac trans]
+39.8 +18.4 29 +43 +67 опасность
перегрева
1006.3 976.2
09 20.05 нст 1 10 км 5/4 600 м
[Sc diur, vesp Ac trans]
+42.2 +17.2 24 +45 +55 опасность
перегрева
1003.0 973.3
12 20.05 Ю 2 10 км 6/3 600 м
[Cu med, cong Ac trans Cs]
+41.8 +15.7 22 +43 +44 опасность
перегрева
1001.5 971.7 +43.6
15 20.05 нст 1 4000 м в посл. час гроза 9/3 600 м
[Cu Sc Ac trans Cs]
+37.0 +15.9 29 +39 +39 очень
душно
1004.0 973.7
18 20.05 В 1 4000 м {гроза} 4/0
[Ac trans Ci fib]
+35.6 +18.9 38 +40 +40 очень
душно
1004.9 974.5
21 20.05 нст 1 4000 м зарница 6/4 600 м
[Cb cap Ac trans]
+33.4 +20.2 46 +40 +40 очень
душно
1004.2 973.5
00 21.05 штиль 0 4000 м 5/0
[Ac trans Ci fib]
+32.0 +20.6 51 +39 +39 очень
душно
1004.5 973.7
03 21.05 нст 1 10 км 4/0
[Ac trans Ci sp]
+33.6 +20.8 47 +41 +49 опасность
перегрева
1006.4 975.7 +30.8 +43.6
06 21.05 нст 1 10 км 5/1 600 м
[Sc diur, vesp Ac trans Ci sp]
+40.0 +19.1 30 +44 +62 опасность
перегрева
1005.8 975.7
09 21.05 С 2 10 км 5/3 600 м
[Sc diur, vesp Ac trans Cs]
+43.4 +15.0 19 +44 +55 опасность
перегрева
1002.5 972.9
12 21.05 нст 1 10 км {гроза} 9/5 600 м
[Cu Sc Ac trans Cs]
+34.2 +17.4 37 +38 +38 очень
душно
1002.8 972.3 +43.6
15 21.05 штиль 0 4000 м 9/4 600 м
[Cu Sc Ac As]
+34.4 +18.9 40 +39 +39 очень
душно
1004.9 974.4

 

Местоположение метеостанции Карнул (Андхра-Прадеш, Индия): широта 15.80 долгота 78.07 высота над уровнем моря 281 м.

В архиве по умолчанию представлена погода в Карнуле за последнюю неделю. Архивные данные за месяц целиком и за предыдущие месяцы, начиная с января 2011 года, Вы можете получить, выбрав интересующий диапазон дат из раскрывающегося списка и нажав кнопку "Ввод!".


*Определитесь, кто Вы:
робот инопланетянин человек

Внимание! Время в таблицах - всемирное. Для получения местного времени необходимо прибавить поправку, которая равна 5.5 ч.

Смотрите также архив погоды в соседних городах и на ближайших метеорологических станциях:

Погода в Райчуре (Карнатака, Индия) (89 км)
Погода в Махбубнагаре (Телингана, Индия) (106 км)
Погода в Анантапуре (Андхра-Прадеш, Индия) (144 км)
Погода в Беллари (Карнатака, Индия) (149 км)
Погода в Рентчайнтале (Андхра-Прадеш, Индия) (179 км)
Погода в Налгонде (Телингана, Индия) (183 км)
Погода в Хайдарабаде (Телингана, Индия) (188 км)
Погода в Коппале (Карнатака, Индия) (212 км)
Погода в Гулбарге (Карнатака, Индия) (216 км)
Погода в Онголе (Андхра-Прадеш, Индия) (218 км)

Пояснения к столбцам:

Ветер - указаны скорость ветра в м/с - средняя за 10 мин, порывы в срок и между сроками (в фигурных скобках) и направление, откуда дует ветер: С - северный, СВ - северо-восточный, В - восточный, ЮВ - юго-восточный, Ю - южный, ЮЗ - юго-западный, З - западный, СЗ - северо-западный.
Видимость - горизонтальная дальность видимости в метрах или километрах. При видимости от 1 до 10 км при отсутствии осадков обычно наблюдается дымка, при ухудшении видимости до 1 км и менее - туман. В сухую погоду видимость может ухудшаться дымом, пылью или мглою.
Явления - указаны атмосферные явления, наблюдавшиеся в срок или в последний час перед сроком; фигурными скобками обозначены явления, наблюдавшиеся между сроками (за 1-3 часа до срока); квадратными скобками обозначены град или гололедные отложения с указанием их диаметра в мм.
Облачность - указаны через наклонную черту общая и нижняя облачность в баллах и высота нижней границы облаков в метрах; квадратными скобками обозначены формы облаков: Ci - перистые, Cs - перисто-слоистые, Cc - перисто-кучевые, Ac - высококучевые, As - высокослоистые, Sc - слоисто-кучевые, Ns - слоисто-дождевые, Cu - кучевые, Cb - кучево-дождевые. Подробнее классификацию облаков см. в Атласе облаков (PDF).
T - Температура воздуха - температура, измеренная на высоте 2 м над землей.
Td - Температура точки росы - температура, при понижении до которой содержащийся в воздухе водяной пар достигнет насыщения.
f - Относительная влажность воздуха - влажноcть воздуха, измеренная на высоте 2 м над землей.
Te - Эффективная температура - температура, которую ощущает одетый по сезону человек в тени. Характеристика душности погоды. При расчете учитывается влияние влажности воздуха и скорости ветра на теплоощущения человека.
Tes - Эффективная температура на солнце - температура, которую ощущает человек, с поправкой на солнечный нагрев. Характеристика знойности погоды. Зависит от высоты солнца над горизонтом, облачности и скорости ветра. Ночью, в пасмурную погоду, а также при ветре 12 м/с и более поправка равна нулю.
P - Атмосферное давление - приведенное к уровню моря атмосферное давление.
Po - Атмосферное давление - измеренное на уровне метеостанции атмосферное давление.
Tmin - Минимальная температура - минимум температуры воздуха на высоте 2 м над землей.
Tmax - Максимальная температура - максимум температуры воздуха на высоте 2 м над землей.
R - Количество осадков - Количество выпавших осадков за период времени, мм. При наведении курсора мыши на число - период времени, за который выпало указанное количество осадков.
R24 - Количество осадков - Количество выпавших осадков за 24 часа, мм.
S - Снежный покров - Высота снежного покрова, см. При наведении курсора мыши на число - состояние снежного покрова и степень покрытия местности в баллах.